Regional Weather Roundup
Issued by NWS Memphis, TN

Home | Current Version | Previous Version | Text Only | Print | Product List | Glossary On
Versions: 1 2 3 4 5 6 7 8 9 10 11 12 13 14 15 16 17 18 19 20 21 22 23 24 25 26 27 28 29 30 31 32 33 34 35 36 37 38 39 40 41 42 43 44 45 46 47 48 49 50
000
ASUS44 KMEG 210210
RWRMEG
MEMPHIS CWA HOURLY WEATHER ROUNDUP
NATIONAL WEATHER SERVICE MEMPHIS TN
900 PM CDT WED AUG 20 2014

...WEST TENNESSEE...

CITY           SKY/WX    TMP DP  RH WIND       PRES   REMARKS
MEMPHIS INTL   CLEAR     84  72  67 S9        30.04R
NWS MEMPHIS      N/A     86 N/A N/A MISG        N/A
JACKSON        CLEAR     79  73  82 S6        30.03R
LEXINGTON      CLEAR     79  75  89 CALM      30.05R
SAVANNAH       CLEAR     79  79 100 SE3       30.07R
DYERSBURG      CLEAR     82  66  57 CALM      30.02R
UNION CITY     CLEAR     79  73  83 S5        30.01R
PARIS          CLEAR     75  72  88 CALM      30.05R
HUNTINGDON     CLEAR     79  74  84 S3        30.04R


...EASTERN ARKANSAS...

CITY           SKY/WX    TMP DP  RH WIND       PRES   REMARKS
JONESBORO      CLEAR     83  72  69 S9        29.99R
WEST MEMPHIS   CLEAR     79  74  84 S5        30.01R
BATESVILLE     CLEAR     84  70  61 S7        29.99R
NEWPORT        CLEAR     81  74  79 SE7       30.00R
WALNUT RIDGE   CLEAR     82  57  42 S10       29.97R
BLYTHEVILLE    CLEAR     81  75  82 S8        30.01R
SEARCY           N/A     81  75  81 CALM        N/A
STUTTGART      CLEAR     84  73  70 S9        30.01R HX  91
PINE BLUFF     CLEAR     80  74  81 S5        30.00R
MONTICELLO     CLEAR     84  72  67 S5        30.00S


...NORTH MISSISSIPPI...

CITY           SKY/WX    TMP DP  RH WIND       PRES   REMARKS
TUPELO         CLEAR     83  73  72 CALM      30.06R
OLIVE BRANCH   CLEAR     79  75  89 S6        30.05R
CLARKSDALE     CLEAR     81  75  83 CALM      30.03R
CORINTH        CLEAR     77  73  88 CALM      30.06R
GRENADA        CLEAR     79  72  78 CALM      30.05R
GREENWOOD      CLEAR     80  75  84 CALM      30.03R
COLUMBUS       CLEAR     80  74  81 CALM      30.06R
STARKVILLE     FAIR      79  72  78 CALM      30.06R
GOLDEN TRIANGL MOCLDY    88  72  58 NE3       30.07R HX  94


...SOUTHEAST MISSOURI...

CITY           SKY/WX    TMP DP  RH WIND       PRES   REMARKS
WEST PLAINS    PTCLDY    81  58  45 SW5       30.00R
POPLAR BLUFF   CLEAR     83  74  74 S7        29.97R
CAPE GIRARDEAU CLEAR     82  74  76 S6        29.98R


...NORTHWEST ALABAMA...

CITY           SKY/WX    TMP DP  RH WIND       PRES   REMARKS
MUSCLE SHOALS  CLEAR     81  73  76 S3        30.08R


...MIDDLE TENNESSEE...

CITY           SKY/WX    TMP DP  RH WIND       PRES   REMARKS
NASHVILLE      CLOUDY    71  70  96 SW3       30.09R
CLARKSVILLE    CLOUDY    73  70  90 S10G20    30.03F
COLUMBIA       CLEAR     75  70  83 S3        30.09S
LEWISBURG      CLOUDY    74  67  78 S3        30.09F


...WESTERN KENTUCKY...

CITY           SKY/WX    TMP DP  RH WIND       PRES   REMARKS
PADUCAH        PTCLDY    82  75  79 SE6       30.00R
FORT CAMPBELL  DRIZZLE   74  73  96 CALM      30.05F


...CENTRAL ARKANSAS...

CITY           SKY/WX    TMP DP  RH WIND       PRES   REMARKS
LITTLE ROCK    PTCLDY    82  74  76 S6        29.99R


SKY/WX REPORTED AS FAIR MEANS FEW OR NO CLOUDS BELOW
12 THOUSAND FEET.




USA.gov is the U.S. government's official web portal to all federal, state and local government web resources and services.